Time,TemperatureF,DewpointF,PressureIn,WindDirection,WindDirectionDegrees,WindSpeedMPH,WindSpeedGustMPH,Humidity,HourlyPrecipIn,Conditions,Clouds,dailyrainin,SolarRadiationWatts/m^2,SoftwareType,DateUTC
2013-04-04 00:00:00,37.0,24.0,29.97,East,90,6.8,11.5,59,0.00,CLR,,0.00,0.0,WeatherDisplay:10.37,2013-04-03 22:00:00,
2013-04-04 00:05:00,36.9,23.9,29.96,East,94,5.8,8.1,59,0.00,CLR,,0.00,0.0,WeatherDisplay:10.37,2013-04-03 22:05:00,
2013-04-04 00:10:00,36.8,24.2,29.96,ESE,109,6.0,8.1,60,0.00,CLR,,0.00,0.0,WeatherDisplay:10.37,2013-04-03 22:10:00,
2013-04-04 00:15:00,36.7,24.1,29.96,East,100,6.3,8.1,60,0.00,CLR,,0.00,0.0,WeatherDisplay:10.37,2013-04-03 22:15:00,
2013-04-04 00:20:00,36.6,24.0,29.96,East,89,6.4,11.5,60,0.00,CLR,,0.00,0.0,WeatherDisplay:10.37,2013-04-03 22:20:00,
2013-04-04 00:25:00,36.5,23.9,29.96,East,92,5.8,8.1,60,0.00,CLR,,0.00,0.0,WeatherDisplay:10.37,2013-04-03 22:25:00,
2013-04-04 00:30:00,36.4,24.2,29.96,ESE,105,6.7,11.5,61,0.00,CLR,,0.00,0.0,WeatherDisplay:10.37,2013-04-03 22:30:00,
2013-04-04 00:35:00,36.4,24.2,29.96,East,87,6.0,8.1,61,0.00,CLR,,0.00,0.0,WeatherDisplay:10.37,2013-04-03 22:35:00,
2013-04-04 00:40:00,36.3,24.1,29.96,East,95,3.1,5.8,61,0.00,CLR,,0.00,0.0,WeatherDisplay:10.37,2013-04-03 22:40:00,
2013-04-04 00:45:00,36.1,24.3,29.96,East,100,5.7,6.9,62,0.00,CLR,,0.00,0.0,WeatherDisplay:10.37,2013-04-03 22:45:00,
2013-04-04 00:50:00,36.0,24.2,29.96,East,93,3.6,8.1,62,0.00,CLR,,0.00,0.0,WeatherDisplay:10.37,2013-04-03 22:50:00,
2013-04-04 00:55:00,35.9,24.1,29.96,East,96,3.0,4.0,62,0.00,CLR,,0.00,0.0,WeatherDisplay:10.37,2013-04-03 22:55:00,
2013-04-04 01:00:00,35.8,24.0,29.96,East,92,4.7,6.9,62,0.00,CLR,,0.00,0.0,WeatherDisplay:10.37,2013-04-03 23:00:00,
2013-04-04 01:05:00,35.8,24.0,29.96,East,92,4.8,6.9,62,0.00,FEW,,0.00,0.0,WeatherDisplay:10.37,2013-04-03 23:05:00,
2013-04-04 01:10:00,35.8,24.0,29.96,East,86,4.2,6.9,62,0.00,FEW,,0.00,0.0,WeatherDisplay:10.37,2013-04-03 23:10:00,
2013-04-04 01:15:00,35.8,24.0,29.96,East,83,5.1,6.9,62,0.00,FEW,,0.00,0.0,WeatherDisplay:10.37,2013-04-03 23:15:00,
2013-04-04 01:20:00,36.0,24.2,29.96,ENE,70,5.0,6.9,62,0.00,FEW,,0.00,0.0,WeatherDisplay:10.37,2013-04-03 23:20:00,
2013-04-04 01:26:00,36.0,24.2,29.96,ENE,74,3.4,4.0,62,0.00,FEW,,0.00,0.0,WeatherDisplay:10.37,2013-04-03 23:26:00,
2013-04-04 01:31:00,36.0,24.2,29.96,ENE,74,5.3,5.8,62,0.00,OVC,,0.00,0.0,WeatherDisplay:10.37,2013-04-03 23:31:00,
2013-04-04 01:36:00,35.9,24.1,29.96,ENE,76,4.4,6.9,62,0.00,OVC,,0.00,0.0,WeatherDisplay:10.37,2013-04-03 23:36:00,
2013-04-04 01:42:00,35.9,24.1,29.96,ENE,67,4.7,5.8,62,0.00,OVC,,0.00,0.0,WeatherDisplay:10.37,2013-04-03 23:42:00,
2013-04-04 01:47:00,36.0,24.2,29.96,ENE,59,3.4,8.1,62,0.00,OVC,,0.00,0.0,WeatherDisplay:10.37,2013-04-03 23:47:00,
2013-04-04 01:52:00,36.0,24.2,29.96,East,84,4.7,8.0,62,0.00,OVC,,0.00,0.0,WeatherDisplay:10.37,2013-04-03 23:52:00,
2013-04-04 01:57:00,36.1,23.9,29.96,ENE,76,3.9,6.9,61,0.00,OVC,,0.00,0.0,WeatherDisplay:10.37,2013-04-03 23:57:00,
2013-04-04 02:02:00,36.2,24.0,29.96,ENE,74,5.8,8.1,61,0.00,OVC,,0.00,0.0,WeatherDisplay:10.37,2013-04-04 00:02:00,
2013-04-04 02:07:00,36.2,24.0,29.96,ENE,67,5.8,8.1,61,0.00,OVC,,0.00,0.0,WeatherDisplay:10.37,2013-04-04 00:07:00,
2013-04-04 02:12:00,36.3,24.1,29.95,ENE,65,3.5,4.6,61,0.00,OVC,,0.00,0.0,WeatherDisplay:10.37,2013-04-04 00:12:00,
2013-04-04 02:17:00,36.4,24.2,29.95,ENE,59,5.2,8.1,61,0.00,OVC,,0.00,0.0,WeatherDisplay:10.37,2013-04-04 00:17:00,
2013-04-04 02:22:00,36.4,23.8,29.95,NE,47,6.9,11.5,60,0.00,OVC,,0.00,0.0,WeatherDisplay:10.37,2013-04-04 00:22:00,
2013-04-04 02:27:00,36.5,23.9,29.95,ENE,58,4.0,8.1,60,0.00,OVC,,0.00,0.0,WeatherDisplay:10.37,2013-04-04 00:27:00,
2013-04-04 02:32:00,36.4,24.2,29.95,ENE,63,4.6,5.8,61,0.00,OVC,,0.00,0.0,WeatherDisplay:10.37,2013-04-04 00:32:00,
2013-04-04 02:37:00,36.1,23.9,29.95,NE,55,4.0,8.1,61,0.00,OVC,,0.00,0.0,WeatherDisplay:10.37,2013-04-04 00:37:00,
2013-04-04 02:42:00,35.8,24.0,29.95,ENE,59,4.4,6.9,62,0.00,OVC,,0.00,0.0,WeatherDisplay:10.37,2013-04-04 00:42:00,
2013-04-04 02:47:00,35.7,24.3,29.95,ENE,67,9.3,12.7,63,0.00,OVC,,0.00,0.0,WeatherDisplay:10.37,2013-04-04 00:47:00,
2013-04-04 02:52:00,35.8,24.0,29.94,NE,49,9.7,12.0,62,0.00,OVC,,0.00,0.0,WeatherDisplay:10.37,2013-04-04 00:52:00,
2013-04-04 02:57:00,35.9,24.1,29.94,ENE,59,5.0,11.5,62,0.00,OVC,,0.00,0.0,WeatherDisplay:10.37,2013-04-04 00:57:00,
2013-04-04 03:02:00,35.8,24.0,29.94,ENE,77,5.3,8.1,62,0.00,OVC,,0.00,0.0,WeatherDisplay:10.37,2013-04-04 01:02:00,
2013-04-04 03:07:00,35.8,24.0,29.94,ENE,60,5.3,6.9,62,0.00,OVC,,0.00,0.0,WeatherDisplay:10.37,2013-04-04 01:07:00,
2013-04-04 03:12:00,35.7,23.9,29.94,ENE,70,7.9,10.4,62,0.00,OVC,,0.00,0.0,WeatherDisplay:10.37,2013-04-04 01:12:00,
2013-04-04 03:17:00,35.5,24.1,29.94,East,93,6.4,11.5,63,0.00,OVC,,0.00,0.0,WeatherDisplay:10.37,2013-04-04 01:17:00,
2013-04-04 03:22:00,35.3,23.9,29.94,ENE,65,10.6,13.8,63,0.00,OVC,,0.00,0.0,WeatherDisplay:10.37,2013-04-04 01:22:00,
2013-04-04 03:27:00,35.0,24.0,29.94,ENE,68,8.5,8.5,64,0.00,OVC,,0.00,0.0,WeatherDisplay:10.37,2013-04-04 01:27:00,
2013-04-04 03:32:00,34.8,23.8,29.94,East,87,7.5,12.7,64,0.00,OVC,,0.00,0.0,WeatherDisplay:10.37,2013-04-04 01:32:00,
2013-04-04 03:37:00,34.6,24.0,29.93,East,88,8.0,13.8,65,0.00,OVC,,0.00,0.0,WeatherDisplay:10.37,2013-04-04 01:37:00,
2013-04-04 03:42:00,34.4,23.8,29.93,ENE,72,6.8,10.4,65,0.00,OVC,,0.00,0.0,WeatherDisplay:10.37,2013-04-04 01:42:00,
2013-04-04 03:47:00,34.3,24.1,29.93,ENE,61,8.4,12.7,66,0.00,OVC,,0.00,0.0,WeatherDisplay:10.37,2013-04-04 01:47:00,
2013-04-04 03:52:00,34.1,23.9,29.93,NE,54,4.8,10.0,66,0.00,OVC,,0.00,0.0,WeatherDisplay:10.37,2013-04-04 01:52:00,
2013-04-04 03:57:00,34.0,23.8,29.93,ENE,75,6.6,11.5,66,0.00,OVC,,0.00,0.0,WeatherDisplay:10.37,2013-04-04 01:57:00,
2013-04-04 04:02:00,33.9,24.1,29.93,ENE,67,5.3,10.4,67,0.00,FEW,,0.00,0.0,WeatherDisplay:10.37,2013-04-04 02:02:00,
2013-04-04 04:07:00,33.7,23.9,29.93,ENE,78,6.1,11.5,67,0.00,FEW,,0.00,0.0,WeatherDisplay:10.37,2013-04-04 02:07:00,
2013-04-04 04:12:00,33.6,24.1,29.93,ENE,76,5.7,8.1,68,0.00,FEW,,0.00,0.0,WeatherDisplay:10.37,2013-04-04 02:12:00,
2013-04-04 04:17:00,33.5,24.4,29.93,ENE,71,6.0,8.1,69,0.00,FEW,,0.00,0.0,WeatherDisplay:10.37,2013-04-04 02:17:00,
2013-04-04 04:22:00,33.4,24.3,29.93,ENE,72,7.6,11.5,69,0.00,FEW,,0.00,0.0,WeatherDisplay:10.37,2013-04-04 02:22:00,
2013-04-04 04:27:00,33.3,24.2,29.92,ENE,66,5.6,11.5,69,0.00,FEW,,0.00,0.0,WeatherDisplay:10.37,2013-04-04 02:27:00,
2013-04-04 04:32:00,33.3,24.5,29.92,ENE,67,6.9,10.4,70,0.00,OVC,,0.00,0.0,WeatherDisplay:10.37,2013-04-04 02:32:00,
2013-04-04 04:37:00,33.3,24.5,29.92,NE,41,7.7,12.0,70,0.00,OVC,,0.00,0.0,WeatherDisplay:10.37,2013-04-04 02:37:00,
2013-04-04 04:42:00,33.2,24.5,29.92,ENE,78,7.6,12.7,70,0.00,OVC,,0.00,0.0,WeatherDisplay:10.37,2013-04-04 02:42:00,
2013-04-04 04:47:00,33.2,24.8,29.92,ENE,76,7.3,11.5,71,0.00,OVC,,0.00,0.0,WeatherDisplay:10.37,2013-04-04 02:47:00,
2013-04-04 04:52:00,33.3,24.9,29.92,NE,55,5.7,10.4,71,0.00,OVC,,0.00,0.0,WeatherDisplay:10.37,2013-04-04 02:52:00,
2013-04-04 04:57:00,33.3,24.5,29.92,ENE,59,8.5,13.8,70,0.00,OVC,,0.00,0.0,WeatherDisplay:10.37,2013-04-04 02:57:00,
2013-04-04 05:02:00,33.3,24.5,29.92,ENE,78,9.0,13.8,70,0.00,OVC,,0.00,0.0,WeatherDisplay:10.37,2013-04-04 03:02:00,
2013-04-04 05:07:00,33.3,24.5,29.92,NE,41,6.8,12.7,70,0.00,OVC,,0.00,0.0,WeatherDisplay:10.37,2013-04-04 03:07:00,
2013-04-04 05:12:00,33.3,24.9,29.92,NE,49,8.5,12.7,71,0.00,OVC,,0.00,0.0,WeatherDisplay:10.37,2013-04-04 03:12:00,
2013-04-04 05:17:00,33.3,24.5,29.92,East,80,8.5,17.3,70,0.00,OVC,,0.00,0.0,WeatherDisplay:10.37,2013-04-04 03:17:00,
2013-04-04 05:22:00,33.3,24.5,29.92,NE,49,7.8,13.8,70,0.00,OVC,,0.00,0.0,WeatherDisplay:10.37,2013-04-04 03:22:00,
2013-04-04 05:27:00,33.3,24.5,29.92,ENE,65,7.2,11.5,70,0.00,OVC,,0.00,0.0,WeatherDisplay:10.37,2013-04-04 03:27:00,
2013-04-04 05:32:00,33.2,24.5,29.92,East,90,6.9,14.0,70,0.00,OVC,,0.00,0.0,WeatherDisplay:10.37,2013-04-04 03:32:00,
2013-04-04 05:37:00,33.2,24.5,29.92,ENE,78,8.2,15.0,70,0.00,OVC,,0.00,0.0,WeatherDisplay:10.37,2013-04-04 03:37:00,
2013-04-04 05:42:00,33.2,24.5,29.92,ENE,78,5.6,8.1,70,0.00,OVC,,0.00,0.0,WeatherDisplay:10.37,2013-04-04 03:42:00,
2013-04-04 05:47:00,33.2,24.5,29.92,NE,52,7.5,12.7,70,0.00,OVC,,0.00,0.0,WeatherDisplay:10.37,2013-04-04 03:47:00,
2013-04-04 05:52:00,33.2,24.5,29.92,ENE,67,6.2,13.8,70,0.00,OVC,,0.00,0.0,WeatherDisplay:10.37,2013-04-04 03:52:00,
2013-04-04 05:57:00,33.2,24.5,29.92,East,80,6.2,11.5,70,0.00,OVC,,0.00,0.0,WeatherDisplay:10.37,2013-04-04 03:57:00,
2013-04-04 06:00:00,33.2,24.5,29.91,East,84,8.7,15.0,70,0.00,OVC,,0.00,0.0,WeatherDisplay:10.37,2013-04-04 04:00:00,
2013-04-04 06:05:00,33.3,24.5,29.92,East,86,6.2,11.5,70,0.00,OVC,,0.00,0.0,WeatherDisplay:10.37,2013-04-04 04:05:00,
2013-04-04 06:10:00,33.4,24.3,29.92,ENE,71,8.8,14.0,69,0.00,OVC,,0.00,0.0,WeatherDisplay:10.37,2013-04-04 04:10:00,
2013-04-04 06:15:00,33.4,24.6,29.92,ENE,70,8.1,12.7,70,0.00,OVC,,0.00,0.0,WeatherDisplay:10.37,2013-04-04 04:15:00,
2013-04-04 06:20:00,33.5,24.4,29.92,East,86,9.9,12.7,69,0.00,OVC,,0.00,0.0,WeatherDisplay:10.37,2013-04-04 04:20:00,
2013-04-04 06:25:00,33.5,24.4,29.92,ENE,74,7.1,11.5,69,0.00,OVC,,0.00,0.0,WeatherDisplay:10.37,2013-04-04 04:25:00,
2013-04-04 06:30:00,33.5,24.4,29.92,East,89,10.3,19.0,69,0.00,OVC,,0.00,0.0,WeatherDisplay:10.37,2013-04-04 04:30:00,
2013-04-04 06:35:00,33.6,24.5,29.92,ENE,74,8.1,12.7,69,0.00,OVC,,0.00,0.0,WeatherDisplay:10.37,2013-04-04 04:35:00,
2013-04-04 06:40:00,33.6,24.5,29.92,NE,55,7.9,18.0,69,0.00,OVC,,0.00,0.0,WeatherDisplay:10.37,2013-04-04 04:40:00,
2013-04-04 06:45:00,33.7,24.6,29.92,ENE,62,8.3,13.8,69,0.00,OVC,,0.00,0.0,WeatherDisplay:10.37,2013-04-04 04:45:00,
2013-04-04 06:50:00,33.7,24.6,29.91,ENE,61,8.4,12.7,69,0.00,OVC,,0.00,0.0,WeatherDisplay:10.37,2013-04-04 04:50:00,
2013-04-04 06:55:00,33.7,24.6,29.92,ENE,63,5.0,10.4,69,0.00,OVC,,0.00,0.0,WeatherDisplay:10.37,2013-04-04 04:55:00,
2013-04-04 07:00:00,33.8,24.7,29.92,ENE,61,7.8,15.0,69,0.00,OVC,,0.00,0.0,WeatherDisplay:10.37,2013-04-04 05:00:00,
2013-04-04 07:05:00,33.9,24.8,29.92,East,79,10.9,12.7,69,0.00,OVC,,0.00,0.0,WeatherDisplay:10.37,2013-04-04 05:05:00,
2013-04-04 07:10:00,33.9,24.8,29.92,East,83,9.2,13.8,69,0.00,OVC,,0.00,0.0,WeatherDisplay:10.37,2013-04-04 05:10:00,
2013-04-04 07:15:00,33.9,24.8,29.92,NE,54,10.1,15.0,69,0.00,OVC,,0.00,0.0,WeatherDisplay:10.37,2013-04-04 05:15:00,
2013-04-04 07:20:00,33.9,24.8,29.92,ENE,57,8.6,15.0,69,0.00,OVC,,0.00,0.0,WeatherDisplay:10.37,2013-04-04 05:20:00,
2013-04-04 07:25:00,33.9,24.8,29.92,ENE,64,6.2,15.0,69,0.00,OVC,,0.00,0.0,WeatherDisplay:10.37,2013-04-04 05:25:00,
2013-04-04 07:30:00,34.0,24.9,29.92,East,86,12.3,17.3,69,0.00,OVC,,0.00,0.0,WeatherDisplay:10.37,2013-04-04 05:30:00,
2013-04-04 07:35:00,34.0,24.9,29.91,ENE,67,10.0,15.0,69,0.00,OVC,,0.00,0.0,WeatherDisplay:10.37,2013-04-04 05:35:00,
2013-04-04 07:40:00,34.0,24.9,29.92,ENE,58,12.6,18.4,69,0.00,OVC,,0.00,0.0,WeatherDisplay:10.37,2013-04-04 05:40:00,
2013-04-04 07:45:00,34.0,24.9,29.92,NE,53,11.2,17.3,69,0.00,OVC,,0.00,5.0,WeatherDisplay:10.37,2013-04-04 05:45:00,
2013-04-04 07:50:00,34.1,25.0,29.92,ENE,68,7.4,13.8,69,0.00,OVC,,0.00,5.0,WeatherDisplay:10.37,2013-04-04 05:50:00,
2013-04-04 07:55:00,34.2,25.1,29.92,ENE,78,9.1,19.6,69,0.00,OVC,,0.00,5.0,WeatherDisplay:10.37,2013-04-04 05:55:00,
2013-04-04 08:00:00,34.2,25.1,29.92,ENE,74,8.5,11.5,69,0.00,OVC,,0.00,7.0,WeatherDisplay:10.37,2013-04-04 06:00:00,
2013-04-04 08:05:00,34.2,25.1,29.92,East,82,10.4,13.8,69,0.00,OVC,,0.00,14.0,WeatherDisplay:10.37,2013-04-04 06:05:00,
2013-04-04 08:10:00,34.3,25.2,29.92,East,85,8.5,12.7,69,0.00,OVC,,0.00,14.0,WeatherDisplay:10.37,2013-04-04 06:10:00,
2013-04-04 08:15:00,34.3,25.2,29.92,ENE,76,7.3,12.7,69,0.00,OVC,,0.00,14.0,WeatherDisplay:10.37,2013-04-04 06:15:00,
2013-04-04 08:20:00,34.3,25.2,29.91,East,89,8.4,15.0,69,0.00,OVC,,0.00,18.0,WeatherDisplay:10.37,2013-04-04 06:20:00,
2013-04-04 08:25:00,34.3,25.2,29.92,ENE,63,8.6,13.8,69,0.00,OVC,,0.00,19.0,WeatherDisplay:10.37,2013-04-04 06:25:00,
2013-04-04 08:30:00,34.3,25.2,29.92,East,91,12.2,15.0,69,0.00,OVC,,0.00,19.0,WeatherDisplay:10.37,2013-04-04 06:30:00,
2013-04-04 08:35:00,34.3,25.2,29.92,ENE,74,9.4,17.3,69,0.00,OVC,,0.00,21.0,WeatherDisplay:10.37,2013-04-04 06:35:00,
2013-04-04 08:40:00,34.3,25.5,29.91,East,80,10.2,15.0,70,0.00,OVC,,0.00,30.0,WeatherDisplay:10.37,2013-04-04 06:40:00,
2013-04-04 08:45:00,34.3,25.5,29.91,ENE,67,8.9,13.8,70,0.00,OVC,,0.00,32.0,WeatherDisplay:10.37,2013-04-04 06:45:00,
2013-04-04 08:50:00,34.3,25.9,29.92,NE,55,5.3,10.0,71,0.00,OVC,,0.00,32.0,WeatherDisplay:10.37,2013-04-04 06:50:00,
2013-04-04 08:55:00,34.2,25.8,29.92,East,82,14.2,19.6,71,0.00,OVC,,0.00,30.0,WeatherDisplay:10.37,2013-04-04 06:55:00,
2013-04-04 09:00:00,34.2,26.1,29.92,ENE,69,13.0,19.6,72,0.00,OVC,,0.00,25.0,WeatherDisplay:10.37,2013-04-04 07:00:00,
2013-04-04 09:05:00,34.0,26.2,29.92,ENE,64,15.8,19.6,73,0.00,-SN,,0.00,28.0,WeatherDisplay:10.37,2013-04-04 07:05:00,
2013-04-04 09:10:00,33.8,26.4,29.92,ENE,66,6.8,15.0,74,0.00,-SN,,0.00,33.0,WeatherDisplay:10.37,2013-04-04 07:10:00,
2013-04-04 09:15:00,33.7,26.6,29.92,NE,51,4.7,10.0,75,0.00,-SN,,0.00,44.0,WeatherDisplay:10.37,2013-04-04 07:15:00,
2013-04-04 09:20:00,33.7,26.9,29.92,ENE,70,7.7,13.0,76,0.00,-SN,,0.00,51.0,WeatherDisplay:10.37,2013-04-04 07:20:00,
2013-04-04 09:29:00,33.7,26.9,29.92,ENE,76,10.5,19.6,76,0.00,-SN,,0.00,70.0,WeatherDisplay:10.37,2013-04-04 07:29:00,
2013-04-04 09:35:00,33.8,27.3,29.91,NE,53,5.7,11.5,77,0.00,-SN,,0.00,100.0,WeatherDisplay:10.37,2013-04-04 07:35:00,
2013-04-04 09:40:00,33.8,27.3,29.92,East,81,9.2,11.5,77,0.00,-SN,,0.00,127.0,WeatherDisplay:10.37,2013-04-04 07:40:00,
2013-04-04 09:45:00,33.9,27.7,29.92,East,84,5.3,8.1,78,0.00,-SN,,0.00,183.0,WeatherDisplay:10.37,2013-04-04 07:45:00,
2013-04-04 09:50:00,34.1,27.9,29.92,East,80,5.4,12.7,78,0.00,-SN,,0.00,163.0,WeatherDisplay:10.37,2013-04-04 07:50:00,
2013-04-04 09:55:00,34.4,28.2,29.91,East,79,5.5,8.1,78,0.00,-SN,,0.00,188.0,WeatherDisplay:10.37,2013-04-04 07:55:00,
2013-04-04 10:00:00,34.6,28.4,29.92,ENE,63,9.8,18.4,78,0.00,-SN,,0.00,179.0,WeatherDisplay:10.37,2013-04-04 08:00:00,
2013-04-04 10:05:00,34.6,28.1,29.92,East,80,12.2,19.6,77,0.00,-SN,,0.00,186.0,WeatherDisplay:10.37,2013-04-04 08:05:00,
2013-04-04 10:10:00,34.5,28.0,29.92,ENE,69,8.5,15.0,77,0.00,-SN,,0.00,188.0,WeatherDisplay:10.37,2013-04-04 08:10:00,
2013-04-04 10:15:00,34.8,28.3,29.92,East,94,11.6,19.6,77,0.00,-SN,,0.00,181.0,WeatherDisplay:10.37,2013-04-04 08:15:00,
2013-04-04 10:20:00,34.9,28.1,29.91,East,84,12.9,20.7,76,0.00,-SN,,0.00,199.0,WeatherDisplay:10.37,2013-04-04 08:20:00,
2013-04-04 10:25:00,35.0,28.2,29.92,East,101,14.0,17.3,76,0.00,-SN,,0.00,243.0,WeatherDisplay:10.37,2013-04-04 08:25:00,
2013-04-04 10:30:00,35.2,28.0,29.91,ENE,65,13.8,20.7,75,0.00,-SN,,0.00,232.0,WeatherDisplay:10.37,2013-04-04 08:30:00,
2013-04-04 10:35:00,35.2,28.0,29.91,East,90,10.6,17.3,75,0.00,BKN,,0.00,230.0,WeatherDisplay:10.37,2013-04-04 08:35:00,
2013-04-04 10:40:00,35.5,28.0,29.92,NE,55,9.5,15.0,74,0.00,BKN,,0.00,244.0,WeatherDisplay:10.37,2013-04-04 08:40:00,
2013-04-04 10:45:00,35.5,28.0,29.92,East,93,8.0,15.0,74,0.00,BKN,,0.00,199.0,WeatherDisplay:10.37,2013-04-04 08:45:00,
2013-04-04 10:50:00,35.7,28.2,29.91,East,80,9.1,18.4,74,0.00,BKN,,0.00,246.0,WeatherDisplay:10.37,2013-04-04 08:50:00,
2013-04-04 10:55:00,35.9,28.1,29.91,ENE,74,11.4,19.6,73,0.00,BKN,,0.00,272.0,WeatherDisplay:10.37,2013-04-04 08:55:00,
2013-04-04 11:00:00,36.0,28.2,29.91,ENE,62,12.5,20.7,73,0.00,BKN,,0.00,267.0,WeatherDisplay:10.37,2013-04-04 09:00:00,
2013-04-04 11:05:00,36.1,27.9,29.91,ESE,107,8.6,13.8,72,0.00,BKN,,0.00,278.0,WeatherDisplay:10.37,2013-04-04 09:05:00,
2013-04-04 11:10:00,36.3,27.8,29.91,East,89,11.0,17.3,71,0.00,BKN,,0.00,248.0,WeatherDisplay:10.37,2013-04-04 09:10:00,
2013-04-04 11:15:00,36.5,28.0,29.91,ESE,105,12.9,16.1,71,0.00,BKN,,0.00,281.0,WeatherDisplay:10.37,2013-04-04 09:15:00,
2013-04-04 11:20:00,36.8,28.3,29.91,East,92,7.7,16.1,71,0.00,BKN,,0.00,272.0,WeatherDisplay:10.37,2013-04-04 09:20:00,
2013-04-04 11:25:00,37.0,28.1,29.91,East,92,12.7,16.0,70,0.00,BKN,,0.00,267.0,WeatherDisplay:10.37,2013-04-04 09:25:00,
2013-04-04 11:30:00,36.8,27.6,29.91,ENE,61,11.5,23.0,69,0.00,BKN,,0.00,264.0,WeatherDisplay:10.37,2013-04-04 09:30:00,
2013-04-04 11:35:00,37.0,28.1,29.91,East,89,7.5,13.8,70,0.00,BKN,,0.00,281.0,WeatherDisplay:10.37,2013-04-04 09:35:00,
2013-04-04 11:40:00,37.4,28.1,29.91,ESE,107,11.4,19.6,69,0.00,BKN,,0.00,316.0,WeatherDisplay:10.37,2013-04-04 09:40:00,
2013-04-04 11:45:00,37.7,28.1,29.91,ESE,107,7.8,15.0,68,0.00,BKN,,0.00,315.0,WeatherDisplay:10.37,2013-04-04 09:45:00,
2013-04-04 11:50:00,37.9,27.9,29.91,East,85,11.8,17.3,67,0.00,BKN,,0.00,329.0,WeatherDisplay:10.37,2013-04-04 09:50:00,
2013-04-04 11:55:00,37.9,27.9,29.91,ENE,75,12.5,13.8,67,0.00,BKN,,0.00,339.0,WeatherDisplay:10.37,2013-04-04 09:55:00,
2013-04-04 12:00:00,38.1,27.7,29.90,ESE,105,10.0,18.4,66,0.00,BKN,,0.00,330.0,WeatherDisplay:10.37,2013-04-04 10:00:00,
2013-04-04 12:05:00,38.5,27.7,29.90,ESE,107,12.2,18.4,65,0.00,BKN,,0.00,383.0,WeatherDisplay:10.37,2013-04-04 10:05:00,
2013-04-04 12:10:00,38.4,27.3,29.90,East,85,13.3,19.6,64,0.00,BKN,,0.00,362.0,WeatherDisplay:10.37,2013-04-04 10:10:00,
2013-04-04 12:15:00,38.8,27.6,29.90,East,99,8.3,17.3,64,0.00,FEW,,0.00,418.0,WeatherDisplay:10.37,2013-04-04 10:15:00,
2013-04-04 12:20:00,39.1,27.9,29.90,ENE,74,6.9,9.2,64,0.00,FEW,,0.00,359.0,WeatherDisplay:10.37,2013-04-04 10:20:00,
2013-04-04 12:25:00,39.4,27.4,29.90,ENE,75,11.2,18.4,62,0.00,FEW,,0.00,322.0,WeatherDisplay:10.37,2013-04-04 10:25:00,
2013-04-04 12:31:00,39.3,27.7,29.90,East,94,12.5,16.0,63,0.00,FEW,,0.00,334.0,WeatherDisplay:10.37,2013-04-04 10:31:00,
2013-04-04 12:36:00,39.3,27.7,29.90,ENE,74,7.2,11.5,63,0.00,OVC,,0.00,236.0,WeatherDisplay:10.37,2013-04-04 10:36:00,
2013-04-04 12:41:00,38.6,27.4,29.91,NE,47,15.8,21.9,64,0.00,SCT,,0.00,399.0,WeatherDisplay:10.37,2013-04-04 10:41:00,
2013-04-04 12:46:00,38.5,28.1,29.90,East,88,11.7,16.1,66,0.00,BKN,,0.00,417.0,WeatherDisplay:10.37,2013-04-04 10:46:00,
2013-04-04 12:51:00,38.8,28.0,29.90,ENE,67,9.1,18.4,65,0.00,BKN,,0.00,366.0,WeatherDisplay:10.37,2013-04-04 10:51:00,
2013-04-04 12:56:00,38.4,27.3,29.90,ESE,107,12.6,20.0,64,0.00,BKN,,0.00,304.0,WeatherDisplay:10.37,2013-04-04 10:56:00,
2013-04-04 13:01:00,38.3,27.5,29.91,ENE,70,8.4,12.7,65,0.00,BKN,,0.00,264.0,WeatherDisplay:10.37,2013-04-04 11:01:00,
2013-04-04 13:06:00,38.1,27.3,29.91,East,80,13.4,20.0,65,0.00,BKN,,0.00,232.0,WeatherDisplay:10.37,2013-04-04 11:06:00,
2013-04-04 13:12:00,37.9,27.5,29.90,ENE,67,6.5,12.7,66,0.00,BKN,,0.00,206.0,WeatherDisplay:10.37,2013-04-04 11:12:00,
2013-04-04 13:17:00,37.7,27.3,29.90,ENE,59,8.6,16.1,66,0.00,BKN,,0.00,209.0,WeatherDisplay:10.37,2013-04-04 11:17:00,
2013-04-04 13:22:00,37.8,27.4,29.90,ENE,66,9.5,13.8,66,0.00,BKN,,0.00,206.0,WeatherDisplay:10.37,2013-04-04 11:22:00,
2013-04-04 13:27:00,37.8,27.4,29.90,ENE,65,10.4,17.3,66,0.00,BKN,,0.00,186.0,WeatherDisplay:10.37,2013-04-04 11:27:00,
2013-04-04 13:32:00,37.6,27.6,29.90,East,86,6.4,11.5,67,0.00,OVC,,0.00,192.0,WeatherDisplay:10.37,2013-04-04 11:32:00,
2013-04-04 13:37:00,37.7,27.3,29.90,ENE,68,11.5,16.1,66,0.00,OVC,,0.00,209.0,WeatherDisplay:10.37,2013-04-04 11:37:00,
2013-04-04 13:42:00,37.8,27.4,29.90,ENE,73,9.5,18.4,66,0.00,OVC,,0.00,193.0,WeatherDisplay:10.37,2013-04-04 11:42:00,
2013-04-04 13:47:00,37.7,27.3,29.90,NE,52,11.1,13.8,66,0.00,OVC,,0.00,236.0,WeatherDisplay:10.37,2013-04-04 11:47:00,
2013-04-04 13:53:00,37.7,27.7,29.90,ENE,78,8.3,13.8,67,0.00,OVC,,0.00,218.0,WeatherDisplay:10.37,2013-04-04 11:53:00,
2013-04-04 13:58:00,37.9,27.5,29.90,NE,50,5.9,13.8,66,0.00,OVC,,0.00,202.0,WeatherDisplay:10.37,2013-04-04 11:58:00,
2013-04-04 14:03:00,38.1,28.1,29.90,East,86,7.2,11.5,67,0.00,FEW,,0.00,183.0,WeatherDisplay:10.37,2013-04-04 12:03:00,
2013-04-04 14:08:00,38.1,27.7,29.90,ENE,65,8.8,11.5,66,0.00,FEW,,0.00,186.0,WeatherDisplay:10.37,2013-04-04 12:08:00,
2013-04-04 14:13:00,37.5,27.5,29.90,ENE,69,14.0,19.6,67,0.00,FEW,,0.00,165.0,WeatherDisplay:10.37,2013-04-04 12:13:00,
2013-04-04 14:18:00,37.4,27.4,29.90,ENE,68,9.7,15.0,67,0.00,FEW,,0.00,153.0,WeatherDisplay:10.37,2013-04-04 12:18:00,
2013-04-04 14:23:00,37.4,27.4,29.90,NE,52,9.7,15.0,67,0.00,FEW,,0.00,153.0,WeatherDisplay:10.37,2013-04-04 12:23:00,
2013-04-04 14:28:00,37.5,27.5,29.90,East,101,11.8,19.6,67,0.00,FEW,,0.00,153.0,WeatherDisplay:10.37,2013-04-04 12:28:00,
2013-04-04 14:33:00,37.6,27.2,29.90,East,101,9.7,17.3,66,0.00,OVC,,0.00,144.0,WeatherDisplay:10.37,2013-04-04 12:33:00,
2013-04-04 14:38:00,38.0,28.0,29.90,ESE,113,9.4,13.8,67,0.00,OVC,,0.00,130.0,WeatherDisplay:10.37,2013-04-04 12:38:00,
2013-04-04 14:43:00,38.2,27.8,29.90,East,81,5.6,8.1,66,0.00,OVC,,0.00,116.0,WeatherDisplay:10.37,2013-04-04 12:43:00,
2013-04-04 14:49:00,38.2,27.4,29.89,NE,53,11.5,17.3,65,0.00,OVC,,0.00,118.0,WeatherDisplay:10.37,2013-04-04 12:49:00,
2013-04-04 14:54:00,38.1,27.3,29.89,ENE,65,6.0,11.5,65,0.00,OVC,,0.00,116.0,WeatherDisplay:10.37,2013-04-04 12:54:00,
2013-04-04 14:59:00,38.0,27.3,29.89,East,89,9.9,16.1,65,0.00,OVC,,0.00,116.0,WeatherDisplay:10.37,2013-04-04 12:59:00,
2013-04-04 15:04:00,38.0,27.3,29.89,ESE,112,8.8,15.0,65,0.00,BKN,,0.00,118.0,WeatherDisplay:10.37,2013-04-04 13:04:00,
2013-04-04 15:09:00,38.1,27.7,29.89,ENE,60,6.0,11.5,66,0.00,BKN,,0.00,121.0,WeatherDisplay:10.37,2013-04-04 13:09:00,
2013-04-04 15:14:00,38.2,27.4,29.89,East,96,8.2,11.5,65,0.00,BKN,,0.00,113.0,WeatherDisplay:10.37,2013-04-04 13:14:00,
2013-04-04 15:19:00,38.4,28.0,29.89,ESE,103,4.8,11.5,66,0.00,BKN,,0.00,104.0,WeatherDisplay:10.37,2013-04-04 13:19:00,
2013-04-04 15:24:00,38.6,27.8,29.89,ENE,59,5.8,11.5,65,0.00,BKN,,0.00,123.0,WeatherDisplay:10.37,2013-04-04 13:24:00,
2013-04-04 15:29:00,38.7,27.5,29.88,East,96,9.0,13.8,64,0.00,BKN,,0.00,144.0,WeatherDisplay:10.37,2013-04-04 13:29:00,
2013-04-04 15:34:00,38.8,27.6,29.88,ENE,59,9.6,13.8,64,0.00,BKN,,0.00,134.0,WeatherDisplay:10.37,2013-04-04 13:34:00,
2013-04-04 15:39:00,38.8,27.6,29.88,ENE,60,11.0,12.7,64,0.00,BKN,,0.00,111.0,WeatherDisplay:10.37,2013-04-04 13:39:00,
2013-04-04 15:44:00,38.8,27.6,29.88,NE,42,7.6,15.0,64,0.00,BKN,,0.00,142.0,WeatherDisplay:10.37,2013-04-04 13:44:00,
2013-04-04 15:49:00,38.9,27.3,29.88,ENE,74,6.9,11.5,63,0.00,BKN,,0.00,218.0,WeatherDisplay:10.37,2013-04-04 13:49:00,
2013-04-04 15:55:00,38.9,27.3,29.88,East,81,13.7,18.4,63,0.00,BKN,,0.00,251.0,WeatherDisplay:10.37,2013-04-04 13:55:00,
2013-04-04 16:00:00,39.1,27.5,29.87,East,80,10.6,15.0,63,0.00,BKN,,0.00,216.0,WeatherDisplay:10.37,2013-04-04 14:00:00,
2013-04-04 16:05:00,39.5,27.9,29.87,East,81,9.1,11.5,63,0.00,OVC,,0.00,130.0,WeatherDisplay:10.37,2013-04-04 14:05:00,
2013-04-04 16:10:00,39.5,27.5,29.87,East,87,10.0,16.0,62,0.00,OVC,,0.00,72.0,WeatherDisplay:10.37,2013-04-04 14:10:00,
2013-04-04 16:15:00,39.3,27.7,29.87,ENE,72,9.8,12.7,63,0.00,OVC,,0.00,74.0,WeatherDisplay:10.37,2013-04-04 14:15:00,
2013-04-04 16:20:00,39.1,27.5,29.87,East,86,6.5,11.5,63,0.00,OVC,,0.00,63.0,WeatherDisplay:10.37,2013-04-04 14:20:00,
2013-04-04 16:25:00,39.1,27.9,29.87,East,85,7.1,11.5,64,0.00,OVC,,0.00,58.0,WeatherDisplay:10.37,2013-04-04 14:25:00,
2013-04-04 16:30:00,39.1,27.9,29.87,East,94,7.4,11.5,64,0.00,OVC,,0.00,69.0,WeatherDisplay:10.37,2013-04-04 14:30:00,
2013-04-04 16:35:00,38.9,27.3,29.87,ENE,78,6.0,15.0,63,0.00,OVC,,0.00,77.0,WeatherDisplay:10.37,2013-04-04 14:35:00,
2013-04-04 16:40:00,38.8,27.6,29.87,ENE,61,9.0,16.1,64,0.00,OVC,,0.00,56.0,WeatherDisplay:10.37,2013-04-04 14:40:00,
2013-04-04 16:45:00,38.7,27.5,29.87,East,92,5.9,10.4,64,0.00,OVC,,0.00,54.0,WeatherDisplay:10.37,2013-04-04 14:45:00,
2013-04-04 16:50:00,38.8,28.0,29.87,ENE,70,9.3,12.7,65,0.00,OVC,,0.00,49.0,WeatherDisplay:10.37,2013-04-04 14:50:00,
2013-04-04 16:55:00,38.8,28.0,29.87,ENE,70,10.3,11.5,65,0.00,OVC,,0.00,53.0,WeatherDisplay:10.37,2013-04-04 14:55:00,
2013-04-04 17:00:00,38.7,27.9,29.86,ENE,72,7.6,11.5,65,0.00,OVC,,0.00,63.0,WeatherDisplay:10.37,2013-04-04 15:00:00,
2013-04-04 17:05:00,38.7,27.9,29.86,ENE,68,6.7,10.4,65,0.00,OVC,,0.00,65.0,WeatherDisplay:10.37,2013-04-04 15:05:00,
2013-04-04 17:10:00,38.8,28.0,29.86,East,95,4.9,12.0,65,0.00,OVC,,0.00,69.0,WeatherDisplay:10.37,2013-04-04 15:10:00,
2013-04-04 17:15:00,39.0,27.8,29.86,ENE,72,5.3,11.5,64,0.00,OVC,,0.00,72.0,WeatherDisplay:10.37,2013-04-04 15:15:00,
2013-04-04 17:20:00,39.0,27.8,29.86,NE,44,7.6,12.7,64,0.00,OVC,,0.00,67.0,WeatherDisplay:10.37,2013-04-04 15:20:00,
2013-04-04 17:25:00,39.1,27.9,29.86,ENE,76,10.6,16.1,64,0.00,OVC,,0.00,74.0,WeatherDisplay:10.37,2013-04-04 15:25:00,
2013-04-04 17:30:00,39.2,27.6,29.86,East,80,5.6,10.4,63,0.00,OVC,,0.00,74.0,WeatherDisplay:10.37,2013-04-04 15:30:00,
2013-04-04 17:35:00,39.3,28.1,29.86,ENE,73,9.8,13.8,64,0.00,OVC,,0.00,54.0,WeatherDisplay:10.37,2013-04-04 15:35:00,
2013-04-04 17:40:00,39.4,28.2,29.86,ENE,66,6.6,10.4,64,0.00,OVC,,0.00,56.0,WeatherDisplay:10.37,2013-04-04 15:40:00,
2013-04-04 17:45:00,39.5,28.3,29.86,East,83,4.0,5.8,64,0.00,OVC,,0.00,67.0,WeatherDisplay:10.37,2013-04-04 15:45:00,
2013-04-04 17:50:00,39.5,27.9,29.86,East,88,4.5,11.5,63,0.00,OVC,,0.00,70.0,WeatherDisplay:10.37,2013-04-04 15:50:00,
2013-04-04 17:55:00,39.5,27.5,29.86,ENE,74,11.4,12.7,62,0.00,OVC,,0.00,70.0,WeatherDisplay:10.37,2013-04-04 15:55:00,
2013-04-04 18:00:00,39.5,27.5,29.86,ENE,71,10.0,12.0,62,0.00,OVC,,0.00,60.0,WeatherDisplay:10.37,2013-04-04 16:00:00,
2013-04-04 18:05:00,39.5,27.5,29.85,ENE,63,6.0,11.5,62,0.00,OVC,,0.00,60.0,WeatherDisplay:10.37,2013-04-04 16:05:00,
2013-04-04 18:10:00,39.6,27.6,29.85,ENE,77,8.9,13.8,62,0.00,OVC,,0.00,62.0,WeatherDisplay:10.37,2013-04-04 16:10:00,
2013-04-04 18:15:00,39.7,28.1,29.85,ENE,65,5.6,8.1,63,0.00,OVC,,0.00,67.0,WeatherDisplay:10.37,2013-04-04 16:15:00,
2013-04-04 18:20:00,39.7,28.1,29.85,NE,49,7.3,10.4,63,0.00,OVC,,0.00,62.0,WeatherDisplay:10.37,2013-04-04 16:20:00,
2013-04-04 18:25:00,39.7,28.1,29.85,NE,55,7.1,10.0,63,0.00,OVC,,0.00,63.0,WeatherDisplay:10.37,2013-04-04 16:25:00,
2013-04-04 18:30:00,39.7,27.7,29.85,ENE,71,7.9,12.7,62,0.00,OVC,,0.00,60.0,WeatherDisplay:10.37,2013-04-04 16:30:00,
2013-04-04 18:35:00,39.7,27.7,29.85,ENE,70,8.8,13.8,62,0.00,OVC,,0.00,65.0,WeatherDisplay:10.37,2013-04-04 16:35:00,
2013-04-04 18:40:00,39.7,27.7,29.85,ENE,63,8.3,11.5,62,0.00,OVC,,0.00,63.0,WeatherDisplay:10.37,2013-04-04 16:40:00,
2013-04-04 18:45:00,39.7,27.7,29.85,ENE,74,8.8,13.8,62,0.00,OVC,,0.00,60.0,WeatherDisplay:10.37,2013-04-04 16:45:00,
2013-04-04 18:50:00,39.7,27.7,29.84,ENE,73,6.8,12.7,62,0.00,OVC,,0.00,74.0,WeatherDisplay:10.37,2013-04-04 16:50:00,
2013-04-04 18:56:00,39.7,28.1,29.85,East,85,6.1,6.9,63,0.00,OVC,,0.00,67.0,WeatherDisplay:10.37,2013-04-04 16:56:00,
2013-04-04 19:01:00,39.8,28.2,29.84,NE,54,8.6,11.0,63,0.00,OVC,,0.00,47.0,WeatherDisplay:10.37,2013-04-04 17:01:00,
2013-04-04 19:06:00,39.7,28.1,29.84,East,79,6.5,11.5,63,0.00,FEW,,0.00,49.0,WeatherDisplay:10.37,2013-04-04 17:06:00,
2013-04-04 19:11:00,39.7,28.1,29.84,ENE,67,4.8,12.0,63,0.00,FEW,,0.00,51.0,WeatherDisplay:10.37,2013-04-04 17:11:00,
2013-04-04 19:16:00,39.6,28.0,29.84,ENE,76,9.8,12.7,63,0.00,FEW,,0.00,46.0,WeatherDisplay:10.37,2013-04-04 17:16:00,
2013-04-04 19:21:00,39.7,28.5,29.85,ENE,63,6.9,11.5,64,0.00,FEW,,0.00,33.0,WeatherDisplay:10.37,2013-04-04 17:21:00,
2013-04-04 19:27:00,39.6,28.4,29.85,NE,47,6.3,10.4,64,0.00,FEW,,0.00,33.0,WeatherDisplay:10.37,2013-04-04 17:27:00,
2013-04-04 19:32:00,39.6,28.4,29.85,NE,54,7.9,11.5,64,0.00,SCT,,0.00,32.0,WeatherDisplay:10.37,2013-04-04 17:32:00,
2013-04-04 19:37:00,39.6,28.4,29.85,ENE,67,7.3,11.5,64,0.00,SCT,,0.00,26.0,WeatherDisplay:10.37,2013-04-04 17:37:00,
2013-04-04 19:42:00,39.6,28.8,29.85,ENE,76,5.3,11.5,65,0.00,SCT,,0.00,28.0,WeatherDisplay:10.37,2013-04-04 17:42:00,
2013-04-04 19:47:00,39.6,28.8,29.85,ENE,76,3.4,10.4,65,0.00,SCT,,0.00,19.0,WeatherDisplay:10.37,2013-04-04 17:47:00,
2013-04-04 19:52:00,39.6,28.8,29.85,ENE,71,4.7,9.2,65,0.00,SCT,,0.00,18.0,WeatherDisplay:10.37,2013-04-04 17:52:00,
2013-04-04 19:57:00,39.6,28.8,29.85,ENE,71,7.4,10.4,65,0.00,SCT,,0.00,18.0,WeatherDisplay:10.37,2013-04-04 17:57:00,
2013-04-04 20:02:00,39.5,28.7,29.85,NE,53,6.1,9.2,65,0.00,SCT,,0.00,12.0,WeatherDisplay:10.37,2013-04-04 18:02:00,
2013-04-04 20:07:00,39.6,28.8,29.85,ENE,70,5.1,8.1,65,0.00,SCT,,0.00,9.0,WeatherDisplay:10.37,2013-04-04 18:07:00,
2013-04-04 20:12:00,39.5,28.7,29.85,ENE,69,6.6,10.4,65,0.00,OVC,,0.00,7.0,WeatherDisplay:10.37,2013-04-04 18:12:00,
2013-04-04 20:17:00,39.5,29.1,29.85,East,85,4.9,6.9,66,0.00,OVC,,0.00,5.0,WeatherDisplay:10.37,2013-04-04 18:17:00,
2013-04-04 20:22:00,39.5,28.7,29.85,ENE,66,10.6,13.8,65,0.00,OVC,,0.00,0.0,WeatherDisplay:10.37,2013-04-04 18:22:00,
2013-04-04 20:27:00,39.5,29.1,29.85,NE,39,7.7,11.0,66,0.00,OVC,,0.00,0.0,WeatherDisplay:10.37,2013-04-04 18:27:00,
2013-04-04 20:32:00,39.5,29.1,29.85,ENE,72,5.5,6.9,66,0.00,OVC,,0.00,0.0,WeatherDisplay:10.37,2013-04-04 18:32:00,
2013-04-04 20:37:00,39.5,29.1,29.85,ENE,59,8.3,12.7,66,0.00,OVC,,0.00,0.0,WeatherDisplay:10.37,2013-04-04 18:37:00,
2013-04-04 20:42:00,39.5,29.1,29.85,ENE,57,5.2,6.9,66,0.00,CLR,,0.00,0.0,WeatherDisplay:10.37,2013-04-04 18:42:00,
2013-04-04 20:47:00,39.5,29.1,29.85,ENE,59,4.3,7.0,66,0.00,CLR,,0.00,0.0,WeatherDisplay:10.37,2013-04-04 18:47:00,
2013-04-04 20:52:00,39.5,29.1,29.85,ENE,67,3.8,10.4,66,0.00,CLR,,0.00,0.0,WeatherDisplay:10.37,2013-04-04 18:52:00,
2013-04-04 20:57:00,39.5,29.1,29.85,ENE,73,6.1,8.1,66,0.00,CLR,,0.00,0.0,WeatherDisplay:10.37,2013-04-04 18:57:00,
2013-04-04 21:02:00,39.5,29.1,29.85,ENE,74,2.3,5.8,66,0.00,OVC,,0.00,0.0,WeatherDisplay:10.37,2013-04-04 19:02:00,
2013-04-04 21:07:00,39.5,29.1,29.85,ENE,67,7.4,8.1,66,0.00,OVC,,0.00,0.0,WeatherDisplay:10.37,2013-04-04 19:07:00,
2013-04-04 21:12:00,39.6,29.2,29.85,ENE,74,5.9,10.4,66,0.00,OVC,,0.00,0.0,WeatherDisplay:10.37,2013-04-04 19:12:00,
2013-04-04 21:17:00,39.6,29.2,29.85,ENE,72,6.7,10.4,66,0.00,OVC,,0.00,0.0,WeatherDisplay:10.37,2013-04-04 19:17:00,
2013-04-04 21:22:00,39.6,28.8,29.85,ENE,72,3.2,11.5,65,0.00,OVC,,0.00,0.0,WeatherDisplay:10.37,2013-04-04 19:22:00,
2013-04-04 21:29:00,39.7,28.9,29.85,NE,38,8.8,10.4,65,0.00,OVC,,0.00,0.0,WeatherDisplay:10.37,2013-04-04 19:29:00,
2013-04-04 21:34:00,39.7,28.9,29.85,NE,46,3.4,8.1,65,0.00,OVC,,0.00,0.0,WeatherDisplay:10.37,2013-04-04 19:34:00,
2013-04-04 21:39:00,39.8,29.0,29.85,ENE,61,3.7,5.8,65,0.00,OVC,,0.00,0.0,WeatherDisplay:10.37,2013-04-04 19:39:00,
2013-04-04 21:44:00,39.7,28.9,29.85,ENE,58,4.7,5.8,65,0.00,BKN,,0.00,0.0,WeatherDisplay:10.37,2013-04-04 19:44:00,
2013-04-04 21:49:00,39.7,28.9,29.85,ENE,61,4.3,4.6,65,0.00,BKN,,0.00,0.0,WeatherDisplay:10.37,2013-04-04 19:49:00,
2013-04-04 21:54:00,39.7,28.9,29.85,NE,53,2.1,3.5,65,0.00,BKN,,0.00,0.0,WeatherDisplay:10.37,2013-04-04 19:54:00,
2013-04-04 21:59:00,39.5,29.1,29.85,ENE,59,3.1,3.5,66,0.00,BKN,,0.00,0.0,WeatherDisplay:10.37,2013-04-04 19:59:00,
2013-04-04 22:04:00,39.5,29.1,29.85,NE,47,5.1,6.0,66,0.00,BKN,,0.00,0.0,WeatherDisplay:10.37,2013-04-04 20:04:00,
2013-04-04 22:10:00,39.5,29.1,29.85,NE,53,3.2,6.9,66,0.00,BKN,,0.00,0.0,WeatherDisplay:10.37,2013-04-04 20:10:00,
2013-04-04 22:15:00,39.4,29.3,29.85,ENE,64,3.8,4.6,67,0.00,BKN,,0.00,0.0,WeatherDisplay:10.37,2013-04-04 20:15:00,
2013-04-04 22:20:00,39.4,29.3,29.85,ENE,59,3.5,5.8,67,0.00,BKN,,0.00,0.0,WeatherDisplay:10.37,2013-04-04 20:20:00,
2013-04-04 22:25:00,39.4,29.3,29.85,ENE,61,4.0,5.8,67,0.00,BKN,,0.00,0.0,WeatherDisplay:10.37,2013-04-04 20:25:00,
2013-04-04 22:30:00,39.4,29.3,29.85,NE,51,3.1,3.5,67,0.00,BKN,,0.00,0.0,WeatherDisplay:10.37,2013-04-04 20:30:00,
2013-04-04 22:35:00,39.4,29.0,29.85,NNE,24,5.5,11.5,66,0.00,BKN,,0.00,0.0,WeatherDisplay:10.37,2013-04-04 20:35:00,
2013-04-04 22:40:00,39.4,29.0,29.85,NE,47,4.1,5.8,66,0.00,BKN,,0.00,0.0,WeatherDisplay:10.37,2013-04-04 20:40:00,
2013-04-04 22:45:00,39.4,29.0,29.85,NE,54,6.9,8.1,66,0.00,BKN,,0.00,0.0,WeatherDisplay:10.37,2013-04-04 20:45:00,
2013-04-04 22:50:00,39.5,29.1,29.85,ENE,59,3.1,5.8,66,0.00,BKN,,0.00,0.0,WeatherDisplay:10.37,2013-04-04 20:50:00,
2013-04-04 22:55:00,39.5,29.1,29.85,NE,52,4.3,8.0,66,0.00,BKN,,0.00,0.0,WeatherDisplay:10.37,2013-04-04 20:55:00,
2013-04-04 23:00:00,39.5,29.1,29.85,NE,44,2.7,4.6,66,0.00,BKN,,0.00,0.0,WeatherDisplay:10.37,2013-04-04 21:00:00,
2013-04-04 23:05:00,39.4,29.0,29.85,NE,47,1.7,5.8,66,0.00,OVC,,0.00,0.0,WeatherDisplay:10.37,2013-04-04 21:05:00,
2013-04-04 23:10:00,39.4,29.3,29.85,NE,48,4.2,5.8,67,0.00,OVC,,0.00,0.0,WeatherDisplay:10.37,2013-04-04 21:10:00,
2013-04-04 23:15:00,39.4,29.3,29.85,NE,40,3.8,9.2,67,0.00,OVC,,0.00,0.0,WeatherDisplay:10.37,2013-04-04 21:15:00,
2013-04-04 23:20:00,39.4,29.7,29.85,NE,38,4.5,9.2,68,0.00,OVC,,0.00,0.0,WeatherDisplay:10.37,2013-04-04 21:20:00,
2013-04-04 23:25:00,39.4,29.7,29.85,ENE,59,4.3,6.9,68,0.00,OVC,,0.00,0.0,WeatherDisplay:10.37,2013-04-04 21:25:00,
2013-04-04 23:30:00,39.3,30.0,29.85,NE,51,2.4,3.5,69,0.00,OVC,,0.00,0.0,WeatherDisplay:10.37,2013-04-04 21:30:00,
2013-04-04 23:35:00,39.2,29.9,29.85,NE,55,4.2,6.9,69,0.00,OVC,,0.00,0.0,WeatherDisplay:10.37,2013-04-04 21:35:00,
2013-04-04 23:40:00,39.1,30.1,29.85,NE,51,2.2,3.5,70,0.00,OVC,,0.00,0.0,WeatherDisplay:10.37,2013-04-04 21:40:00,
2013-04-04 23:45:00,39.0,30.0,29.85,NE,52,4.4,5.8,70,0.00,OVC,,0.00,0.0,WeatherDisplay:10.37,2013-04-04 21:45:00,
2013-04-04 23:50:00,38.8,30.2,29.85,NE,54,2.7,5.8,71,0.00,OVC,,0.00,0.0,WeatherDisplay:10.37,2013-04-04 21:50:00,
2013-04-04 23:55:00,38.7,30.1,29.85,ENE,73,3.8,6.0,71,0.00,OVC,,0.00,0.0,WeatherDisplay:10.37,2013-04-04 21:55:00,